sat.trackr.live / text

‹ back to catalog

STARLINK-35802

NORAD 66289 · 2025-247AA

PAYLOAD ACTIVE UNKNOWN

§ Identity

Operator
Country
US
Launch date
2025-10-31
Launch site
AFWTR
Launch vehicle
Mass (kg)
RCS (m²)

Purposes: comms

External: N2YO · Heavens-Above · Gunter

§ Orbital elements

Epoch: 2026-05-25T03:20:35.882880Z

Period
93.85 min
Inclination
53.1588°
Eccentricity
0.0001313
Mean motion
15.34407137 rev/d
Perigee alt
461.8 km
Apogee alt
463.6 km
Semi-major
6,840.8 km
B*
2.8884e-4
RAAN
195.2597°
Arg perigee
105.0514°
Mean anomaly
255.0634°
Rev number
3,275

§ Raw data

STARLINK-358021 66289U 25247AA  26145.13930420  .00009397  00000+0  28884-3 0  99912 66289  53.1588 195.2597 0001313 105.0514 255.0634 15.34407137 32752

JSON: /api/v1/satellites/66289 · /tle

For live sub-satellite position, see the globe view (requires WebGL).

§ Visibility from observer

Set your observer location to see the next 7 days of passes ≥ 10°. The values pass through the URL so the page stays shareable.

No JS? Fill the form by hand. The geolocation button needs JavaScript.